Location: Ambrosina
(19.9365°S, 43.9833°W)
Time: 09:38:48
(UTC+00:00)

Cosmos 1842 Rocket - Pass Details

Date: 11 May 2021
Orbit: 604 x 635 km, 82.5° (Epoch: 22 June)

Event Time Altitude Azimuth Distance (km) Brightness Sun altitude
Rises 21:33:24 0° 185° (S) 2,918 6.9 -15.4°
Reaches altitude 10° 21:35:39 10° 185° (S) 2,010 6.1 -15.9°
Maximum altitude 21:40:06 88° 271° (W) 635 3.5 -16.9°
Drops below altitude 10° 21:44:34 10° 3° (N) 2,003 6.3 -17.9°
Sets 21:46:47 0° 4° (N) 2,907 7.1 -18.4°
